Location: Newark
(41.0400°S, 62.7845°W)
Time: 12:21:50
(UTC+00:00)

A-11 Canister half - All Passes

Search period start: 08 December 2021 00:00
Search period end: 18 December 2021 00:00
Orbit: 1524 x 1685 km, 47.3° (Epoch: 07 December)

Date Brightness Start Highest point End Pass type
(mag) Time Alt. Az. Time Alt. Az. Time Alt. Az.
08 Dec - 01:11:40 10° W 01:17:02 16° NW 01:22:30 10° NNW visible
08 Dec - 14:23:48 10° N 14:31:16 28° NE 14:38:42 10° ESE daylight
08 Dec - 16:25:55 10° NW 16:35:14 80° NNE 16:44:39 10° ESE daylight
08 Dec - 18:31:27 10° W 18:40:43 62° S 18:50:08 10° ESE daylight
08 Dec - 20:37:20 10° WSW 20:46:44 69° SSE 20:56:22 10° E daylight
08 Dec - 22:42:32 10° WSW 22:51:49 61° NW 23:01:21 10° NE daylight
09 Dec - 00:49:42 10° W 00:55:27 18° NW 01:01:19 10° NNW visible
09 Dec - 14:02:25 10° N 14:09:40 26° NE 14:16:55 10° ESE daylight
09 Dec - 16:04:16 10° NW 16:13:36 77° NNE 16:22:58 10° ESE daylight
09 Dec - 18:09:44 10° W 18:19:00 63° S 18:28:25 10° ESE daylight
09 Dec - 20:15:39 10° WSW 20:25:02 68° SSE 20:34:38 10° E daylight
09 Dec - 22:20:52 10° WSW 22:30:10 63° NW 22:39:44 10° NE daylight
10 Dec - 00:27:46 10° W 00:33:52 19° NW 00:40:04 10° NNW visible
10 Dec - 13:41:02 10° N 13:48:06 25° NE 13:55:06 10° E daylight
10 Dec - 15:42:38 10° NW 15:51:56 75° NNE 16:01:17 10° ESE daylight
10 Dec - 17:48:01 10° W 17:57:17 63° S 18:06:41 10° ESE daylight
10 Dec - 19:53:58 10° WSW 20:03:19 67° SSE 20:12:53 10° E daylight
10 Dec - 21:59:11 10° WSW 22:08:31 66° NW 22:18:06 10° NE daylight
11 Dec - 00:05:52 10° W 00:12:15 20° NW 00:18:46 10° N visible
11 Dec - 13:19:41 10° N 13:26:30 23° NE 13:33:16 10° E daylight
11 Dec - 15:21:00 10° NW 15:30:18 72° NE 15:39:36 10° ESE daylight
11 Dec - 17:26:18 10° W 17:35:35 64° SSW 17:44:59 10° ESE daylight
11 Dec - 19:32:17 10° WSW 19:41:37 66° SSE 19:51:09 10° E daylight
11 Dec - 21:37:31 10° WSW 21:46:52 68° NW 21:56:27 10° NE daylight
11 Dec - 23:44:01 10° W 23:50:40 22° NW 23:57:28 10° N daylight
12 Dec - 12:58:21 10° N 13:04:55 22° NE 13:11:26 10° E daylight
12 Dec - 14:59:22 10° NW 15:08:38 69° NE 15:17:55 10° ESE daylight
12 Dec - 17:04:35 10° W 17:13:52 65° SSW 17:23:16 10° ESE daylight
12 Dec - 19:10:36 10° WSW 19:19:54 65° SSE 19:29:23 10° E daylight
12 Dec - 21:15:51 10° WSW 21:25:13 71° NW 21:34:48 10° NE daylight
12 Dec - 23:22:10 10° W 23:29:04 23° NW 23:36:07 10° N daylight
13 Dec - 12:37:03 10° N 12:43:20 20° NE 12:49:34 10° E daylight
13 Dec - 14:37:45 10° NW 14:47:00 67° NE 14:56:14 10° ESE daylight
13 Dec - 16:42:52 10° W 16:52:10 66° SSW 17:01:33 10° ESE daylight
13 Dec - 18:48:53 10° WSW 18:58:12 64° S 19:07:39 10° E daylight
13 Dec - 20:54:11 10° WSW 21:03:33 74° NW 21:13:09 10° NE daylight
13 Dec - 23:00:21 10° W 23:07:28 24° NW 23:14:45 10° N daylight
14 Dec - 12:15:47 10° NNE 12:21:45 19° NE 12:27:40 10° E daylight
14 Dec - 14:16:08 10° NW 14:25:22 64° NE 14:34:33 10° ESE daylight
14 Dec - 16:21:09 10° W 16:30:28 67° SSW 16:39:51 10° ESE daylight
14 Dec - 18:27:12 10° WSW 18:36:29 63° S 18:45:55 10° E daylight
14 Dec - 20:32:31 10° WSW 20:41:54 76° NNW 20:51:29 10° NE daylight
14 Dec - 22:38:32 10° WSW 22:45:52 26° NW 22:53:21 10° N daylight
15 Dec - 11:54:33 10° NNE 12:00:10 17° NE 12:05:44 10° E daylight
15 Dec - 13:54:31 10° NW 14:03:44 61° NE 14:12:52 10° ESE daylight
15 Dec - 15:59:25 10° W 16:08:46 68° SSW 16:18:09 10° ESE daylight
15 Dec - 18:05:30 10° WSW 18:14:47 62° S 18:24:10 10° E daylight
15 Dec - 20:10:51 10° WSW 20:20:14 79° NNW 20:29:49 10° NE daylight
15 Dec - 22:16:45 10° WSW 22:24:16 28° NW 22:31:56 10° N daylight
16 Dec - 11:33:22 10° NNE 11:38:36 16° NE 11:43:46 10° E daylight
16 Dec - 13:32:55 10° NW 13:42:06 59° NE 13:51:12 10° ESE daylight
16 Dec - 15:37:42 10° W 15:47:05 70° SSW 15:56:27 10° ESE daylight
16 Dec - 17:43:47 10° WSW 17:53:04 62° S 18:02:25 10° E daylight
16 Dec - 19:49:10 10° WSW 19:58:34 82° NNW 20:08:09 10° NE daylight
16 Dec - 21:54:58 10° WSW 22:02:40 29° NW 22:10:30 10° N daylight
17 Dec - 11:12:15 10° NNE 11:17:01 15° ENE 11:21:45 10° E daylight
17 Dec - 13:11:20 10° NW 13:20:28 56° NE 13:29:30 10° ESE daylight
17 Dec - 15:16:00 10° WNW 15:25:23 71° SSW 15:34:46 10° ESE daylight
17 Dec - 17:22:05 10° WSW 17:31:21 61° S 17:40:41 10° E daylight
17 Dec - 19:27:30 10° WSW 19:36:55 84° NNW 19:46:28 10° ENE daylight
17 Dec - 21:33:13 10° WSW 21:41:04 31° NW 21:49:03 10° N daylight
